Location: Antin
(43.3330°N, 0.2804°E)
Time: 22:10:01
(UTC+00:00)

Cosmos 494 Rocket - Pass Details

Date: 16 October 2021
Orbit: 743 x 770 km, 74.1° (Epoch: 03 December)

Event Time Altitude Azimuth Distance (km) Brightness Sun altitude
Rises 17:45:53 0° 343° (NNW) 3,240 7.4 -6.5°
Reaches altitude 10° 17:48:20 10° 349° (N) 2,306 6.6 -7.0°
Maximum altitude 17:53:26 51° 65° (ENE) 954 4.2 -7.9°
Drops below altitude 10° 17:58:27 10° 141° (SE) 2,274 6.1 -8.8°
Sets 18:00:51 0° 147° (SSE) 3,190 6.9 -9.3°
